Location: Plum
(40.5000°N, 79.7500°W)
Time: 05:29:58
(UTC-04:00)

MOZ.5/SAFIR/RUBIN 5/SL-8 - Visible Passes

Search period start: 26 October 2014 00:00
Search period end: 04 November 2014 23:00
Orbit: 680 x 708 km, 97.8° (Epoch: 25 October)

Date Brightness Start Highest point End Pass type
(mag) Time Alt. Az. Time Alt. Az. Time Alt. Az.
26 Oct 3.8 06:36:02 10° SSE 06:40:41 89° WSW 06:45:24 10° NNW visible
26 Oct 5.5 20:12:28 10° N 20:16:44 33° WNW 20:21:00 10° SW visible
27 Oct 6.0 05:39:54 10° ESE 05:43:38 24° ENE 05:47:24 10° NNE visible
27 Oct 4.5 07:16:52 10° SSW 07:21:04 33° W 07:25:19 10° NNW visible
27 Oct 3.8 19:14:49 10° NNE 19:19:34 65° E 19:24:19 10° S visible
27 Oct 6.8 20:54:08 10° NNW 20:56:38 14° WNW 20:59:08 10° W visible
28 Oct 4.3 06:19:06 10° SSE 06:23:41 61° ENE 06:28:19 10° N visible
28 Oct 4.8 19:55:12 10° N 19:59:48 49° WNW 20:04:24 10° SW visible
29 Oct 6.5 05:23:47 10° ESE 05:26:46 17° ENE 05:29:47 10° NNE visible
29 Oct 4.0 06:59:27 10° S 07:03:58 50° W 07:08:33 10° NNW visible
29 Oct 4.2 18:57:56 10° NNE 19:02:30 43° E 19:07:03 10° S visible
29 Oct 6.3 20:36:19 10° NNW 20:39:48 20° WNW 20:43:16 10° WSW visible
30 Oct 5.1 06:02:21 10° SE 06:06:43 41° ENE 06:11:08 10° N visible
30 Oct 4.1 19:38:03 10° N 19:42:50 73° WNW 19:47:35 10° SSW visible
31 Oct 6.8 05:08:14 10° E 05:09:57 12° ENE 05:11:40 10° NE visible
31 Oct 3.7 06:42:14 10° S 06:46:54 76° WSW 06:51:37 10° NNW visible
31 Oct 4.7 18:41:13 10° NE 18:45:23 29° E 18:49:32 10° SSE visible
31 Oct 5.8 20:18:49 10° N 20:22:55 29° WNW 20:27:00 10° SW visible
01 Nov 5.8 05:45:48 10° SE 05:49:47 28° ENE 05:53:48 10° N visible
01 Nov 3.7 19:21:00 10° NNE 19:25:48 77° ESE 19:30:35 10° S visible
01 Nov 6.9 21:00:52 10° NW 21:02:45 12° WNW 21:04:38 10° W visible
02 Nov 4.0 05:25:13 10° SSE 05:29:51 73° ENE 05:34:34 10° N visible
02 Nov 5.1 19:01:29 10° N 19:05:59 41° WNW 19:10:27 10° SW visible
03 Nov 6.3 04:29:31 10° ESE 04:32:53 20° ENE 04:36:17 10° NNE visible
03 Nov 4.2 06:05:45 10° S 06:10:11 42° W 06:14:40 10° NNW visible
03 Nov 4.0 18:04:03 10° NNE 18:08:44 51° E 18:13:22 10° S visible
03 Nov 6.5 19:42:47 10° NNW 19:45:55 18° WNW 19:49:03 10° WSW visible
04 Nov 4.7 05:08:22 10° SE 05:12:51 48° ENE 05:17:25 10° N visible
04 Nov 4.3 18:44:16 10° N 18:49:00 62° WNW 18:53:42 10° SSW visible
